FW9627 Weather Reports


Display with metric or nautical units.
time (UTC)temp
F
wind
direction
speed
MPH
gust
MPH
rain 1hr
in
rain 24hr
in
rain mn
in
humidity
%
barometer
mb
20260504205445 81 163 5.0 7.0 0.00 0.00 0.00 41 991.1
20260504204943 80 241 3.0 6.0 0.00 0.00 0.00 42 991.1
20260504204441 80 244 8.0 11.0 0.00 0.00 0.00 41 991.0
20260504203940 81 262 3.0 3.0 0.00 0.00 0.00 42 991.1
20260504203437 82 212 7.0 9.0 0.00 0.00 0.00 40 991.4
20260504202933 85 170 4.0 7.0 0.00 0.00 0.00 38 991.5
20260504202430 83 137 5.0 9.0 0.00 0.00 0.00 39 991.3
20260504201926 83 128 3.0 5.0 0.00 0.00 0.00 41 991.6
20260504201424 86 242 7.0 14.0 0.00 0.00 0.00 37 991.6
20260504200921 85 159 5.0 6.0 0.00 0.00 0.00 39 991.7
20260504200418 83 272 5.0 7.0 0.00 0.00 0.00 40 991.8
20260504195915 84 317 2.0 2.0 0.00 0.00 0.00 40 992.0
20260504195410 84 250 4.0 6.0 0.00 0.00 0.00 39 991.8
20260504194907 82 216 6.0 9.0 0.00 0.00 0.00 40 991.8
20260504194403 84 202 5.0 9.0 0.00 0.00 0.00 37 992.1
20260504193859 87 283 2.0 3.0 0.00 0.00 0.00 36 992.1
20260504193356 86 215 2.0 3.0 0.00 0.00 0.00 37 991.9
20260504192855 82 294 3.0 3.0 0.00 0.00 0.00 40 992.5
20260504192352 83 201 7.0 8.0 0.00 0.00 0.00 41 992.3
20260504191850 83 159 4.0 6.0 0.00 0.00 0.00 39 992.6
20260504191348 84 251 5.0 6.0 0.00 0.00 0.00 38 992.5
20260504190843 81 289 1.0 2.0 0.00 0.00 0.00 40 992.7
20260504190339 82 128 6.0 9.0 0.00 0.00 0.00 38 992.8
20260504185836 84 226 5.0 8.0 0.00 0.00 0.00 40 992.6
20260504185333 82 175 3.0 5.0 0.00 0.00 0.00 39 992.7
20260504184829 82 136 1.0 2.0 0.00 0.00 0.00 40 992.7
20260504184325 83 181 1.0 2.0 0.00 0.00 0.00 42 992.7
20260504183821 83 229 4.0 5.0 0.00 0.00 0.00 40 992.9
20260504183319 85 311 3.0 5.0 0.00 0.00 0.00 36 992.6
20260504182817 82 204 3.0 5.0 0.00 0.00 0.00 40 992.7
20260504182314 84 153 5.0 6.0 0.00 0.00 0.00 39 992.9
20260504181811 84 297 1.0 1.0 0.00 0.00 0.00 41 992.9
20260504181308 82 269 2.0 3.0 0.00 0.00 0.00 43 993.0
20260504180807 80 213 6.0 10.0 0.00 0.00 0.00 45 992.8
20260504180305 83 275 3.0 3.0 0.00 0.00 0.00 40 993.1
20260504175803 85 253 5.0 6.0 0.00 0.00 0.00 39 993.3
20260504175259 85 259 3.0 3.0 0.00 0.00 0.00 40 993.3
20260504174757 83 231 5.0 6.0 0.00 0.00 0.00 43 993.2
20260504174255 85 264 3.0 3.0 0.00 0.00 0.00 39 993.2
20260504173751 84 224 1.0 2.0 0.00 0.00 0.00 40 993.2
20260504173248 82 149 4.0 5.0 0.00 0.00 0.00 44 993.4
20260504172745 84 141 3.0 5.0 0.00 0.00 0.00 41 993.4
20260504172242 84 329 4.0 7.0 0.00 0.00 0.00 41 993.4
20260504171738 85 231 3.0 5.0 0.00 0.00 0.00 41 993.4
20260504171235 83 242 3.0 3.0 0.00 0.00 0.00 43 993.7
20260504170732 85 330 0.0 1.0 0.00 0.00 0.00 41 993.6
20260504170229 84 227 1.0 2.0 0.00 0.00 0.00 41 993.7
20260504160147 81 179 1.0 2.0 0.00 0.00 0.00 46 994.4
20260504151115 79 231 3.0 6.0 0.00 0.00 0.00 48 994.9
20260504150613 79 255 1.0 1.0 0.00 0.00 0.00 50 994.8
20260504150109 79 274 3.0 3.0 0.00 0.00 0.00 49 994.7
20260504141037 70 244 2.0 2.0 0.00 0.00 0.00 63 994.8
20260504140534 70 172 2.0 3.0 0.00 0.00 0.00 64 994.8
20260504130459 61 298 1.0 2.0 0.00 0.00 0.00 75 995.0
20260504110340 53 280 1.0 1.0 0.00 0.00 0.00 86 994.0
20260504100303 53 266 2.0 2.0 0.00 0.00 0.00 84 994.1
20260504081656 54 256 1.0 1.0 0.00 0.00 0.00 80 994.5
20260504081152 54 261 1.0 2.0 0.00 0.00 0.00 79 994.2
20260504080649 54 258 1.0 1.0 0.00 0.00 0.00 79 994.6
20260504080145 54 259 1.0 1.0 0.00 0.00 0.00 79 994.6
20260504070113 55 260 2.0 2.0 0.00 0.00 0.00 75 995.2
20260504050502 56 292 1.0 1.0 0.00 0.00 0.00 70 995.7
20260504045959 56 282 1.0 1.0 0.00 0.00 0.00 69 996.0
20260504045455 56 292 1.0 2.0 0.00 0.00 0.00 69 995.7
20260504044951 56 287 1.0 1.0 0.00 0.00 0.00 68 995.7
20260504044448 56 315 0.0 1.0 0.00 0.00 0.00 69 995.7
20260504043946 56 268 1.0 1.0 0.00 0.00 0.00 69 995.7
20260504043442 56 284 2.0 2.0 0.00 0.00 0.00 70 995.9
20260504042940 56 252 1.0 2.0 0.00 0.00 0.00 70 995.9
20260504042436 56 263 1.0 1.0 0.00 0.00 0.00 70 996.0
20260504041933 56 270 1.0 1.0 0.00 0.00 0.00 70 996.0
20260504041429 56 255 1.0 1.0 0.00 0.00 0.00 69 995.8
20260504040925 55 272 0.0 0.0 0.00 0.00 0.00 70 996.1
20260504040424 55 282 0.0 0.0 0.00 0.00 0.00 71 996.0
20260504035919 55 276 1.0 1.0 0.00 0.00 0.00 71 996.3
20260504035417 55 272 0.0 0.0 0.00 0.00 0.00 74 996.1
20260504034913 54 272 0.0 0.0 0.00 0.00 0.00 78 996.3
20260504034412 54 281 0.0 0.0 0.00 0.00 0.00 79 996.3
20260504033908 55 329 0.0 0.0 0.00 0.00 0.00 78 996.4
20260504033406 55 329 0.0 0.0 0.00 0.00 0.00 77 996.4
20260504032902 56 330 0.0 0.0 0.00 0.00 0.00 75 996.4
20260504032359 56 309 0.0 0.0 0.00 0.00 0.00 72 996.5
20260504031855 57 305 0.0 0.0 0.00 0.00 0.00 68 996.5
20260504031353 56 304 0.0 0.0 0.00 0.00 0.00 69 996.5
20260504030849 56 301 0.0 0.0 0.00 0.00 0.00 69 996.4
20260504030347 57 314 0.0 0.0 0.00 0.00 0.00 69 996.6
20260504025843 57 315 0.0 0.0 0.00 0.00 0.00 69 996.2
20260504025340 57 304 0.0 0.0 0.00 0.00 0.00 66 996.5
20260504024836 57 305 0.0 0.0 0.00 0.00 0.00 66 996.5
20260504024333 57 297 0.0 0.0 0.00 0.00 0.00 68 996.4
20260504023829 56 289 0.0 0.0 0.00 0.00 0.00 72 996.2
20260504023327 56 293 0.0 0.0 0.00 0.00 0.00 73 996.3
20260504022822 57 272 0.0 0.0 0.00 0.00 0.00 76 996.1
20260504022319 58 276 0.0 0.0 0.00 0.00 0.00 71 996.3
20260504021816 59 309 0.0 0.0 0.00 0.00 0.00 67 996.3
20260504021314 59 299 0.0 0.0 0.00 0.00 0.00 61 996.2
20260504020810 59 297 0.0 0.0 0.00 0.00 0.00 61 995.9
20260504020307 59 299 0.0 0.0 0.00 0.00 0.00 59 996.0
20260504015803 60 296 0.0 0.0 0.00 0.00 0.00 59 996.0
20260504015259 60 300 0.0 0.0 0.00 0.00 0.00 59 996.1
20260504014755 60 300 0.0 0.0 0.00 0.00 0.00 58 996.0
20260504014251 60 301 0.0 0.0 0.00 0.00 0.00 59 995.9
20260504013749 60 299 0.0 0.0 0.00 0.00 0.00 62 996.1
20260504013247 60 299 0.0 0.0 0.00 0.00 0.00 61 996.2
20260504012743 60 299 0.0 0.0 0.00 0.00 0.00 63 996.0
20260504012241 61 280 0.0 0.0 0.00 0.00 0.00 65 996.2
20260504011738 61 298 0.0 0.0 0.00 0.00 0.00 59 995.9
20260504011234 61 302 0.0 0.0 0.00 0.00 0.00 57 995.9
20260504010731 62 307 0.0 0.0 0.00 0.00 0.00 57 995.9
20260504010226 62 277 0.0 0.0 0.00 0.00 0.00 56 996.0
20260504005723 62 271 0.0 0.0 0.00 0.00 0.00 55 995.8
20260504005220 63 270 0.0 1.0 0.00 0.00 0.00 54 995.7
20260504004718 64 272 0.0 0.0 0.00 0.00 0.00 52 995.8
20260504004215 64 272 0.0 0.0 0.00 0.00 0.00 52 995.6
20260504003712 64 291 0.0 0.0 0.00 0.00 0.00 51 995.6
20260504003208 65 275 0.0 0.0 0.00 0.00 0.00 51 995.5
20260504002705 65 293 0.0 0.0 0.00 0.00 0.00 52 995.8
20260504002202 66 292 0.0 0.0 0.00 0.00 0.00 52 995.9
20260504001700 66 267 0.0 0.0 0.00 0.00 0.00 50 995.9
20260504001157 66 301 0.0 0.0 0.00 0.00 0.00 49 996.0
20260504000653 67 284 0.0 0.0 0.00 0.00 0.00 48 996.0
20260504000150 67 311 0.0 0.0 0.00 0.00 0.00 47 996.0
20260503235649 68 258 2.0 2.0 0.00 0.00 0.00 47 996.0
20260503235145 68 274 0.0 0.0 0.00 0.00 0.00 45 996.0
20260503234643 69 232 1.0 2.0 0.00 0.00 0.00 44 996.3
20260503234141 69 289 0.0 1.0 0.00 0.00 0.00 44 996.0
20260503233638 69 229 1.0 2.0 0.00 0.00 0.00 42 996.1
20260503233133 70 232 1.0 1.0 0.00 0.00 0.00 44 996.1
20260503232630 70 282 0.0 0.0 0.00 0.00 0.00 42 996.0
20260503232128 70 296 0.0 1.0 0.00 0.00 0.00 42 996.2
20260503231626 71 352 0.0 1.0 0.00 0.00 0.00 41 996.4
20260503231122 71 300 0.0 0.0 0.00 0.00 0.00 41 996.3
20260503230619 72 259 0.0 0.0 0.00 0.00 0.00 40 996.7
20260503230116 72 140 2.0 2.0 0.00 0.00 0.00 40 996.4
20260503225614 73 294 1.0 1.0 0.00 0.00 0.00 38 996.4
20260503225113 73 305 1.0 1.0 0.00 0.00 0.00 37 996.5
20260503224611 73 309 1.0 2.0 0.00 0.00 0.00 37 996.9
20260503224109 75 337 1.0 1.0 0.00 0.00 0.00 35 996.8
20260503223606 76 286 0.0 1.0 0.00 0.00 0.00 34 996.7
20260503223102 76 300 0.0 0.0 0.00 0.00 0.00 35 996.7
20260503222600 76 284 0.0 1.0 0.00 0.00 0.00 34 996.8
20260503222057 76 307 2.0 2.0 0.00 0.00 0.00 34 996.7
20260503221555 77 191 2.0 2.0 0.00 0.00 0.00 35 996.7
20260503221053 76 298 2.0 3.0 0.00 0.00 0.00 34 996.8
20260503220548 78 295 0.0 1.0 0.00 0.00 0.00 32 996.8
20260503220046 77 285 1.0 1.0 0.00 0.00 0.00 31 996.8
20260503215543 78 292 0.0 0.0 0.00 0.00 0.00 32 997.0
20260503215040 77 128 1.0 2.0 0.00 0.00 0.00 32 996.9
20260503214538 77 281 2.0 2.0 0.00 0.00 0.00 33 996.8
20260503214034 77 271 2.0 2.0 0.00 0.00 0.00 32 997.1
20260503213533 78 310 0.0 0.0 0.00 0.00 0.00 31 997.3
20260503213029 76 326 1.0 1.0 0.00 0.00 0.00 31 997.1
20260503212526 77 325 0.0 1.0 0.00 0.00 0.00 32 996.9
20260503212024 77 244 2.0 2.0 0.00 0.00 0.00 32 997.0
20260503211521 78 240 1.0 2.0 0.00 0.00 0.00 31 997.3
20260503211016 77 308 1.0 1.0 0.00 0.00 0.00 31 997.4
20260503210513 77 271 1.0 1.0 0.00 0.00 0.00 31 997.6
20260503210009 79 259 2.0 2.0 0.00 0.00 0.00 31 997.6